Voltar ao catálogo

SL-16 DEB

AtivoLEO
NORAD 22579·DEBRIS·🇷🇺 Russia

Lançado Mar 26, 1993 de Baikonur Cosmodrome

Loading…

Próximas Passagens (próximas 24 horas)

TLE

AtualizadoSource: Space-Track

Época: Sep 14, 2026, 13:02 UTC

1 22579U 93016G   26257.54365906  .00000152  00000-0  53878-4 0  9997
2 22579  71.0274 100.2611 0104651 285.7417  95.0420 14.47043853762330

Acompanhe SL-16 DEB em tempo real com AllMySat

Download on the App Store